AUA28R EDDV-LOWW

Flight info

Callsign AUA28R
Flight time 1h 4m
Altitude 35000
Route POVEL4S POVEL Y800 TADUV Z21 OSTRA DCT OMELO DCT EVIKU DCT BITSI DCT MIKOV MIKOV8W
Aircraft A320/M-SDE3FGHIRWY/LB1

Departure

Time 2026-04-26 17:03
Airport Hannover Airport (EDDV)

Arrival

Time 2026-04-26 18:08
Airport Vienna International Airport (LOWW)
Time Latitude Longitude Altitude Speed Heading
2026-04-26 16:35 52.45841 9.69316 179 ft 0 kts 48°
2026-04-26 16:55 52.45833 9.69301 179 ft 4 kts 57°
2026-04-26 16:55 52.45822 9.69261 179 ft 4 kts 84°
2026-04-26 16:55 52.45823 9.69218 179 ft 4 kts 106°
2026-04-26 16:56 52.45844 9.69161 179 ft 0 kts 144°
2026-04-26 16:58 52.45761 9.69183 179 ft 9 kts 209°
2026-04-26 16:59 52.45703 9.69150 181 ft 8 kts 188°
2026-04-26 16:59 52.45625 9.69208 184 ft 5 kts 113°
2026-04-26 17:00 52.45614 9.69503 183 ft 15 kts 92°
2026-04-26 17:00 52.45608 9.69728 191 ft 9 kts 92°
2026-04-26 17:00 52.45602 9.69928 189 ft 23 kts 92°
2026-04-26 17:01 52.45594 9.70202 186 ft 25 kts 92°
2026-04-26 17:01 52.45588 9.70393 185 ft 26 kts 92°
2026-04-26 17:01 52.45580 9.70686 187 ft 23 kts 92°
2026-04-26 17:01 52.45564 9.70989 186 ft 11 kts 120°
2026-04-26 17:02 52.45529 9.71072 198 ft 7 kts 135°
2026-04-26 17:02 52.45499 9.71096 192 ft 9 kts 164°
2026-04-26 17:02 52.45424 9.71075 205 ft 13 kts 215°
2026-04-26 17:02 52.45406 9.70990 193 ft 1 kts 274°
2026-04-26 17:03 52.45413 9.70755 201 ft 57 kts 271°
2026-04-26 17:03 52.45441 9.69693 195 ft 125 kts 272°
2026-04-26 17:03 52.45470 9.68028 361 ft 162 kts 271°
2026-04-26 17:03 52.45515 9.66141 1198 ft 163 kts 275°
2026-04-26 17:04 52.45569 9.64237 1904 ft 176 kts 276°
2026-04-26 17:04 52.45632 9.62125 2360 ft 194 kts 275°
2026-04-26 17:04 52.45694 9.59874 3063 ft 200 kts 275°
2026-04-26 17:04 52.45753 9.57602 4061 ft 198 kts 276°
2026-04-26 17:05 52.45723 9.55332 4980 ft 203 kts 262°
2026-04-26 17:05 52.45101 9.53226 5835 ft 217 kts 236°
2026-04-26 17:05 52.43845 9.51689 6644 ft 232 kts 218°
2026-04-26 17:05 52.42430 9.50368 7399 ft 236 kts 217°
2026-04-26 17:06 52.41006 9.49046 8179 ft 238 kts 218°
2026-04-26 17:06 52.39557 9.47698 8966 ft 241 kts 218°
2026-04-26 17:06 52.38021 9.46512 9764 ft 254 kts 200°
2026-04-26 17:06 52.36192 9.46612 10500 ft 274 kts 164°
2026-04-26 17:07 52.34552 9.48370 10922 ft 299 kts 130°
2026-04-26 17:07 52.33438 9.51393 11237 ft 322 kts 113°
2026-04-26 17:07 52.32564 9.54901 11519 ft 345 kts 107°
2026-04-26 17:07 52.31773 9.58713 11776 ft 367 kts 105°
2026-04-26 17:08 52.30967 9.62772 12326 ft 378 kts 106°
2026-04-26 17:08 52.30121 9.66876 13042 ft 384 kts 107°
2026-04-26 17:08 52.29219 9.71007 13797 ft 389 kts 108°
2026-04-26 17:08 52.28269 9.75143 14469 ft 394 kts 109°
2026-04-26 17:09 52.27271 9.79344 15132 ft 398 kts 110°
2026-04-26 17:09 52.26585 9.82194 15567 ft 401 kts 110°
2026-04-26 17:09 52.25244 9.87877 16440 ft 406 kts 106°
2026-04-26 17:09 52.24574 9.92366 17079 ft 408 kts 99°
2026-04-26 17:10 52.24007 9.96908 17726 ft 412 kts 99°
2026-04-26 17:10 52.23434 10.01475 18358 ft 416 kts 99°
2026-04-26 17:10 52.22849 10.06112 18938 ft 420 kts 99°
2026-04-26 17:10 52.22257 10.10797 19512 ft 423 kts 99°
2026-04-26 17:11 52.21660 10.15497 20101 ft 426 kts 99°
2026-04-26 17:11 52.21052 10.20248 20709 ft 428 kts 99°
2026-04-26 17:11 52.20437 10.25034 21291 ft 431 kts 99°
2026-04-26 17:11 52.19819 10.29809 21879 ft 434 kts 99°
2026-04-26 17:12 52.18550 10.39566 23025 ft 440 kts 99°
2026-04-26 17:12 52.17918 10.44403 23565 ft 443 kts 99°
2026-04-26 17:13 52.16614 10.54332 24500 ft 449 kts 99°
2026-04-26 17:13 52.15959 10.59321 24925 ft 452 kts 99°
2026-04-26 17:13 52.14634 10.69343 25749 ft 457 kts 99°
2026-04-26 17:14 52.13952 10.74453 26144 ft 460 kts 99°
2026-04-26 17:14 52.12011 10.84438 26930 ft 468 kts 115°
2026-04-26 17:14 52.10404 10.89007 27304 ft 471 kts 122°
2026-04-26 17:15 52.06836 10.98015 28042 ft 476 kts 122°
2026-04-26 17:15 52.05034 11.02568 28409 ft 479 kts 122°
2026-04-26 17:15 52.03227 11.07138 28767 ft 481 kts 122°
2026-04-26 17:16 52.01426 11.11693 29106 ft 483 kts 122°
2026-04-26 17:16 51.99592 11.16319 29455 ft 485 kts 122°
2026-04-26 17:16 51.97769 11.20910 29792 ft 487 kts 122°
2026-04-26 17:16 51.95920 11.25553 30111 ft 490 kts 122°
2026-04-26 17:17 51.94056 11.30214 30414 ft 492 kts 122°
2026-04-26 17:17 51.92192 11.34856 30670 ft 493 kts 122°
2026-04-26 17:17 51.90336 11.39477 30918 ft 495 kts 122°
2026-04-26 17:17 51.88454 11.44164 31156 ft 497 kts 122°
2026-04-26 17:18 51.86561 11.48876 31399 ft 498 kts 122°
2026-04-26 17:18 51.84662 11.53593 31703 ft 498 kts 123°
2026-04-26 17:18 51.82789 11.58232 32023 ft 497 kts 123°
2026-04-26 17:18 51.80898 11.62904 32356 ft 496 kts 123°
2026-04-26 17:19 51.77111 11.72235 33002 ft 495 kts 123°
2026-04-26 17:19 51.75215 11.76899 33318 ft 494 kts 123°
2026-04-26 17:19 51.73335 11.81514 33636 ft 494 kts 123°
2026-04-26 17:20 51.71469 11.86091 33951 ft 493 kts 123°
2026-04-26 17:20 51.70211 11.89169 34163 ft 493 kts 123°
2026-04-26 17:20 51.67676 11.95350 34534 ft 492 kts 123°
2026-04-26 17:20 51.65808 11.99886 34815 ft 492 kts 123°
2026-04-26 17:21 51.63913 12.04481 35090 ft 492 kts 123°
2026-04-26 17:21 51.62012 12.09089 35257 ft 492 kts 123°
2026-04-26 17:21 51.58236 12.18241 35294 ft 488 kts 123°
2026-04-26 17:22 51.54499 12.27275 35298 ft 488 kts 123°
2026-04-26 17:22 51.50716 12.36370 35302 ft 487 kts 124°
2026-04-26 17:23 51.46947 12.45389 35298 ft 487 kts 124°
2026-04-26 17:23 51.43155 12.54434 35292 ft 487 kts 124°
2026-04-26 17:24 51.39497 12.63540 35291 ft 487 kts 121°
2026-04-26 17:24 51.35960 12.72801 35288 ft 487 kts 121°
2026-04-26 17:25 51.32439 12.82005 35290 ft 488 kts 122°
2026-04-26 17:25 51.28842 12.91199 35290 ft 488 kts 122°
2026-04-26 17:26 51.25153 13.00328 35294 ft 487 kts 123°
2026-04-26 17:26 51.21450 13.09342 35297 ft 487 kts 123°
2026-04-26 17:27 51.17734 13.18401 35299 ft 487 kts 123°
2026-04-26 17:27 51.14060 13.27375 35294 ft 487 kts 123°
2026-04-26 17:28 51.10343 13.36430 35308 ft 487 kts 123°
2026-04-26 17:28 51.06624 13.45449 35294 ft 486 kts 123°
2026-04-26 17:29 51.03531 13.52903 35296 ft 486 kts 123°
2026-04-26 17:29 50.99179 13.63346 35290 ft 486 kts 123°
2026-04-26 17:30 50.95441 13.72305 35296 ft 486 kts 123°
2026-04-26 17:30 50.91717 13.81226 35294 ft 486 kts 124°
2026-04-26 17:31 50.87972 13.90153 35297 ft 486 kts 124°
2026-04-26 17:31 50.84154 13.98954 35286 ft 485 kts 130°
2026-04-26 17:32 50.79391 14.06467 35290 ft 483 kts 139°
2026-04-26 17:32 50.74416 14.13628 35273 ft 483 kts 139°
2026-04-26 17:33 50.69453 14.20772 35300 ft 480 kts 139°
2026-04-26 17:34 50.62076 14.31346 35312 ft 477 kts 139°
2026-04-26 17:34 50.57196 14.38319 35306 ft 475 kts 140°
2026-04-26 17:35 50.52305 14.45298 35298 ft 474 kts 140°
2026-04-26 17:35 50.47416 14.52254 35290 ft 473 kts 140°
2026-04-26 17:36 50.42574 14.59265 35278 ft 473 kts 138°
2026-04-26 17:36 50.37856 14.66498 35268 ft 473 kts 137°
2026-04-26 17:37 50.33190 14.73705 35270 ft 473 kts 137°
2026-04-26 17:37 50.28442 14.80907 35264 ft 474 kts 138°
2026-04-26 17:38 50.21291 14.91608 35264 ft 474 kts 139°
2026-04-26 17:38 50.16545 14.98695 35262 ft 474 kts 139°
2026-04-26 17:39 50.11802 15.05793 35259 ft 474 kts 138°
2026-04-26 17:39 50.07033 15.12905 35255 ft 474 kts 139°
2026-04-26 17:40 50.03860 15.17607 35255 ft 475 kts 139°
2026-04-26 17:40 49.97482 15.27049 35254 ft 475 kts 139°
2026-04-26 17:41 49.92678 15.34142 35249 ft 476 kts 139°
2026-04-26 17:41 49.87873 15.41208 35242 ft 476 kts 139°
2026-04-26 17:42 49.83063 15.48261 35246 ft 476 kts 139°
2026-04-26 17:42 49.78268 15.55274 35243 ft 476 kts 139°
2026-04-26 17:43 49.73442 15.62313 35242 ft 476 kts 139°
2026-04-26 17:43 49.68642 15.69300 35250 ft 476 kts 139°
2026-04-26 17:44 49.64613 15.75152 35247 ft 477 kts 139°
2026-04-26 17:44 49.58978 15.83295 35249 ft 477 kts 140°
2026-04-26 17:45 49.56562 15.86779 35067 ft 478 kts 139°
2026-04-26 17:45 49.54114 15.90309 34087 ft 484 kts 140°
2026-04-26 17:45 49.51640 15.93869 32934 ft 490 kts 140°
2026-04-26 17:45 49.49153 15.97443 32160 ft 488 kts 139°
2026-04-26 17:46 49.46696 16.00974 31546 ft 483 kts 139°
2026-04-26 17:46 49.44221 16.04530 30866 ft 480 kts 139°
2026-04-26 17:46 49.41812 16.07982 30187 ft 478 kts 139°
2026-04-26 17:46 49.39374 16.11463 29495 ft 474 kts 139°
2026-04-26 17:47 49.37775 16.13742 29074 ft 470 kts 139°
2026-04-26 17:47 49.36192 16.15993 28643 ft 467 kts 139°
2026-04-26 17:47 49.33012 16.20513 27812 ft 461 kts 140°
2026-04-26 17:47 49.30517 16.23545 27254 ft 453 kts 150°
2026-04-26 17:48 49.27801 16.25617 27067 ft 433 kts 165°
2026-04-26 17:48 49.24051 16.27277 26933 ft 411 kts 169°
2026-04-26 17:48 49.22235 16.28039 26866 ft 402 kts 169°
2026-04-26 17:48 49.19480 16.29169 26296 ft 418 kts 169°
2026-04-26 17:49 49.16650 16.30301 25643 ft 422 kts 169°
2026-04-26 17:49 49.13807 16.31428 25016 ft 421 kts 169°
2026-04-26 17:49 49.10954 16.32556 24395 ft 421 kts 169°
2026-04-26 17:49 49.08153 16.33670 23797 ft 421 kts 169°
2026-04-26 17:50 49.05269 16.34818 23065 ft 421 kts 168°
2026-04-26 17:50 49.02461 16.35936 22371 ft 421 kts 168°
2026-04-26 17:50 48.99639 16.37060 21696 ft 422 kts 168°
2026-04-26 17:50 48.96779 16.38197 21017 ft 422 kts 168°
2026-04-26 17:51 48.93937 16.39325 20370 ft 422 kts 168°
2026-04-26 17:51 48.91084 16.40454 19730 ft 422 kts 168°
2026-04-26 17:51 48.88250 16.41574 19113 ft 422 kts 168°
2026-04-26 17:51 48.85402 16.42699 18487 ft 422 kts 167°
2026-04-26 17:52 48.82556 16.43823 17788 ft 421 kts 167°
2026-04-26 17:52 48.79743 16.44934 17110 ft 421 kts 167°
2026-04-26 17:52 48.76944 16.46040 16426 ft 406 kts 167°
2026-04-26 17:52 48.74271 16.47098 15944 ft 388 kts 167°
2026-04-26 17:53 48.71732 16.48102 15503 ft 375 kts 167°
2026-04-26 17:53 48.69200 16.49094 15053 ft 370 kts 168°
2026-04-26 17:53 48.66738 16.50054 14626 ft 367 kts 167°
2026-04-26 17:54 48.61822 16.51976 13744 ft 364 kts 167°
2026-04-26 17:54 48.59376 16.52934 13241 ft 362 kts 167°
2026-04-26 17:54 48.56930 16.53889 12729 ft 361 kts 167°
2026-04-26 17:54 48.54500 16.54838 12213 ft 360 kts 167°
2026-04-26 17:55 48.52096 16.55775 11720 ft 358 kts 167°
2026-04-26 17:55 48.49653 16.56728 11215 ft 356 kts 168°
2026-04-26 17:55 48.47298 16.57643 10737 ft 354 kts 167°
2026-04-26 17:55 48.44917 16.58569 10254 ft 352 kts 168°
2026-04-26 17:56 48.42555 16.59487 9656 ft 350 kts 168°
2026-04-26 17:56 48.37999 16.61265 8299 ft 329 kts 168°
2026-04-26 17:57 48.33682 16.62945 6993 ft 312 kts 169°
2026-04-26 17:57 48.31592 16.63752 6333 ft 305 kts 169°
2026-04-26 17:57 48.29566 16.64532 5713 ft 296 kts 167°
2026-04-26 17:57 48.27595 16.65289 5145 ft 287 kts 166°
2026-04-26 17:58 48.21875 16.67479 3463 ft 286 kts 165°
2026-04-26 17:59 48.18119 16.68923 2993 ft 272 kts 164°
2026-04-26 17:59 48.16379 16.69594 2979 ft 272 kts 165°
2026-04-26 17:59 48.14539 16.70301 2980 ft 272 kts 165°
2026-04-26 17:59 48.12720 16.71000 2985 ft 273 kts 165°
2026-04-26 18:00 48.11482 16.71477 2987 ft 273 kts 164°
2026-04-26 18:00 48.09039 16.72415 2983 ft 273 kts 164°
2026-04-26 18:00 48.07198 16.73116 2991 ft 273 kts 165°
2026-04-26 18:00 48.05365 16.73816 2986 ft 273 kts 165°
2026-04-26 18:01 48.03510 16.74525 2987 ft 273 kts 164°
2026-04-26 18:01 48.01675 16.75229 2988 ft 273 kts 164°
2026-04-26 18:01 47.99837 16.75932 3008 ft 272 kts 164°
2026-04-26 18:01 47.98048 16.76574 3005 ft 254 kts 171°
2026-04-26 18:02 47.96364 16.76567 2992 ft 234 kts 196°
2026-04-26 18:02 47.95399 16.75914 2998 ft 228 kts 219°
2026-04-26 18:02 47.94237 16.73420 3002 ft 220 kts 252°
2026-04-26 18:02 47.93717 16.71302 3008 ft 220 kts 255°
2026-04-26 18:03 47.93357 16.69100 3004 ft 213 kts 276°
2026-04-26 18:03 47.93780 16.67087 3005 ft 204 kts 311°
2026-04-26 18:03 47.94782 16.65616 3008 ft 202 kts 323°
2026-04-26 18:03 47.95966 16.64565 3000 ft 193 kts 345°
2026-04-26 18:04 47.97220 16.64038 2965 ft 181 kts 346°
2026-04-26 18:04 47.98407 16.63540 2791 ft 174 kts 346°
2026-04-26 18:04 47.99552 16.63058 2534 ft 168 kts 347°
2026-04-26 18:05 48.01603 16.62193 2154 ft 137 kts 347°
2026-04-26 18:05 48.02512 16.61811 1949 ft 132 kts 347°
2026-04-26 18:05 48.03392 16.61441 1772 ft 131 kts 347°
2026-04-26 18:05 48.04251 16.61079 1599 ft 128 kts 347°
2026-04-26 18:06 48.05115 16.60716 1413 ft 128 kts 347°
2026-04-26 18:06 48.05973 16.60354 1234 ft 128 kts 346°
2026-04-26 18:06 48.06832 16.59991 1063 ft 128 kts 346°
2026-04-26 18:06 48.07675 16.59635 896 ft 128 kts 346°
2026-04-26 18:07 48.08524 16.59277 720 ft 127 kts 346°
2026-04-26 18:07 48.09361 16.58926 621 ft 116 kts 345°
2026-04-26 18:07 48.10021 16.58645 624 ft 84 kts 344°
2026-04-26 18:07 48.10364 16.58500 622 ft 70 kts 345°
2026-04-26 18:08 48.10896 16.58274 614 ft 51 kts 344°
2026-04-26 18:08 48.11202 16.58144 620 ft 42 kts 344°
2026-04-26 18:08 48.11462 16.58035 619 ft 36 kts 344°
2026-04-26 18:08 48.11689 16.57939 610 ft 28 kts 345°
2026-04-26 18:09 48.11838 16.57829 620 ft 23 kts 305°
2026-04-26 18:09 48.11854 16.57667 610 ft 16 kts 262°
2026-04-26 18:09 48.11850 16.57628 610 ft 8 kts 260°
2026-04-26 18:09 48.11840 16.57564 617 ft 5 kts 252°
2026-04-26 18:10 48.11829 16.57513 622 ft 5 kts 253°
2026-04-26 18:10 48.11820 16.57466 611 ft 7 kts 253°
2026-04-26 18:10 48.11812 16.57348 615 ft 12 kts 283°
2026-04-26 18:10 48.11852 16.57226 614 ft 13 kts 305°
2026-04-26 18:11 48.11909 16.57116 610 ft 15 kts 298°
2026-04-26 18:11 48.11955 16.56975 616 ft 12 kts 295°
2026-04-26 18:11 48.11983 16.56915 616 ft 2 kts 342°
2026-04-26 18:11 48.11999 16.56915 617 ft 2 kts
2026-04-26 18:12 48.12022 16.56928 620 ft 5 kts 22°
2026-04-26 18:12 48.12030 16.56934 616 ft 0 kts 24°